This demonstration page uses our WeatherBlox Daily Observations layout. Learn more.

Left ArrowRight Arrow

Hourly Observations for July 9, 2021

Temp ( °F °C ) Dew Point ( °F °C ) Humidity (%) Winds ( mph kmh ) Pressure ( in mb ) Visibility ( mi km ) Precip ( " mm )
12:15 am 00:15 Cloudy 63 17 61 16 94 94 N 7 11 29.90 1012 10 16 N/A
12:35 am 00:35 Cloudy with Light Rain 63 17 63 17 100 100 N 12 19 29.90 1012 10 16 N/A
12:55 am 00:55 Cloudy with Drizzle 61 16 61 16 100 100 N 6 9 29.89 1012 7 11 N/A
1:15 am 01:15 Cloudy with Drizzle 61 16 61 16 100 100 NNE 3 6 29.88 1012 5 8 0.01 0.25
1:35 am 01:35 Cloudy 61 16 61 16 100 100 NNW 6 9 29.87 1011 10 16 0.01 0.25
1:55 am 01:55 Cloudy 61 16 61 16 100 100 NNW 6 9 29.88 1012 10 16 0.01 0.25
2:15 am 02:15 Cloudy 61 16 61 16 100 100 NNW 7 11 29.88 1012 10 16 N/A
2:35 am 02:35 Mostly Cloudy 61 16 61 16 100 100 N 3 6 29.88 1012 10 16 N/A
2:55 am 02:55 Clear 59 15 59 15 100 100 NNW 3 6 29.87 1011 10 16 N/A
3:15 am 03:15 Clear 59 15 59 15 100 100 NNW 5 7 29.87 1011 10 16 N/A
3:35 am 03:35 Clear 59 15 59 15 100 100 WNW 3 6 29.86 1011 10 16 N/A
3:55 am 03:55 Clear 57 14 57 14 100 100 N N/A 29.86 1011 10 16 N/A
4:15 am 04:15 Clear 57 14 57 14 100 100 N N/A 29.86 1011 10 16 N/A
4:35 am 04:35 Partly Cloudy 57 14 57 14 100 100 W 3 6 29.87 1012 10 16 N/A
4:55 am 04:55 Mostly Cloudy 57 14 57 14 100 100 N N/A 29.87 1012 10 16 N/A
5:15 am 05:15 Cloudy 57 14 57 14 100 100 W 5 7 29.88 1012 10 16 N/A
5:35 am 05:35 Partly Cloudy 55 13 55 13 100 100 WNW 8 13 29.88 1012 10 16 N/A
5:55 am 05:55 Sunny 55 13 55 13 100 100 WNW 12 19 29.88 1012 10 16 0.01 0.25
6:15 am 06:15 Sunny 55 13 55 13 100 100 WNW 10 17 29.89 1012 10 16 N/A
6:35 am 06:35 Sunny 55 13 55 13 100 100 WNW 8 13 29.89 1012 10 16 N/A
6:55 am 06:55 Sunny 55 13 55 13 100 100 NW 5 7 29.89 1012 10 16 N/A
7:15 am 07:15 Sunny 57 14 57 14 100 100 WNW 7 11 29.90 1013 10 16 N/A
7:35 am 07:35 Sunny 59 15 57 14 94 94 WNW 5 7 29.90 1012 10 16 N/A
7:55 am 07:55 Sunny 61 16 57 14 88 88 N N/A 29.91 1013 10 16 N/A
8:15 am 08:15 Sunny 61 16 59 15 94 94 N N/A 29.91 1013 10 16 N/A
8:35 am 08:35 Sunny 63 17 59 15 88 88 N N/A 29.91 1013 10 16 N/A
8:55 am 08:55 Sunny 64 18 61 16 88 88 WSW 5 7 29.91 1013 10 16 N/A
9:15 am 09:15 Sunny 66 19 61 16 83 83 W 5 7 29.91 1013 10 16 N/A
9:35 am 09:35 Sunny 68 20 61 16 78 78 W 3 6 29.90 1013 10 16 N/A
9:55 am 09:55 Mostly Cloudy with Drizzle 68 20 61 16 78 78 SSW 3 6 29.89 1012 10 16 N/A
10:15 am 10:15 Mostly Cloudy 68 20 63 17 83 83 SSW 5 7 29.90 1013 10 16 N/A
10:35 am 10:35 Mostly Cloudy 70 21 63 17 78 78 W 3 6 29.90 1013 10 16 N/A
10:55 am 10:55 Partly Cloudy 72 22 63 17 73 73 WSW 8 13 29.90 1012 10 16 N/A
11:15 am 11:15 Partly Cloudy 72 22 63 17 73 73 W 5 7 29.90 1012 10 16 N/A
11:35 am 11:35 Sunny 72 22 64 18 78 78 WSW 5 7 29.90 1012 10 16 N/A
11:55 am 11:55 Sunny 73 23 64 18 74 74 SW 7 11 29.90 1012 10 16 N/A
12:15 pm 12:15 Sunny 75 24 66 19 74 74 WSW 8 13 29.90 1012 10 16 N/A
12:35 pm 12:35 Partly Cloudy 77 25 66 19 69 69 W 3 6 29.89 1012 10 16 N/A
12:55 pm 12:55 Partly Cloudy 79 26 68 20 70 70 SW 3 6 29.88 1012 10 16 N/A
1:15 pm 13:15 Partly Cloudy 79 26 68 20 70 70 WSW 6 9 29.88 1012 10 16 N/A
1:35 pm 13:35 Partly Cloudy 81 27 66 19 62 62 SW 6 9 29.88 1012 10 16 N/A
1:55 pm 13:55 Partly Cloudy 81 27 68 20 66 66 WSW 5 7 29.87 1012 10 16 N/A
2:15 pm 14:15 Mostly Cloudy 81 27 66 19 62 62 N N/A 29.86 1011 10 16 N/A
2:35 pm 14:35 Cloudy with Rain 79 26 70 21 74 74 SW 6 9 29.87 1012 7 11 0.01 0.25
2:55 pm 14:55 Mostly Cloudy 73 23 70 21 89 89 NW 6 9 29.88 1012 10 16 0.05 1.27
3:15 pm 15:15 Partly Cloudy 79 26 70 21 74 74 N N/A 29.85 1011 10 16 N/A
3:35 pm 15:35 Partly Cloudy 77 25 70 21 79 79 S 5 7 29.86 1011 10 16 N/A
3:55 pm 15:55 Mostly Cloudy with Heavy Rain 73 23 68 20 83 83 NNE 7 11 29.89 1012 3 5 0.13 3.30
4:15 pm 16:15 Cloudy with Nearby Thunderstorms 73 23 68 20 83 83 WSW 3 6 29.89 1012 10 16 N/A
4:35 pm 16:35 Mostly Cloudy 73 23 68 20 83 83 SSE 7 11 29.88 1012 10 16 N/A
4:55 pm 16:55 Partly Cloudy 75 24 68 20 78 78 SSW 3 6 29.87 1011 10 16 N/A
5:15 pm 17:15 Partly Cloudy 77 25 68 20 74 74 S 6 9 29.86 1011 10 16 N/A
5:35 pm 17:35 Partly Cloudy 79 26 68 20 70 70 SSW 5 7 29.85 1011 10 16 N/A
5:55 pm 17:55 Sunny 79 26 70 21 74 74 SSW 5 7 29.84 1011 10 16 N/A
6:15 pm 18:15 Sunny 79 26 70 21 74 74 N N/A 29.84 1011 10 16 N/A
6:35 pm 18:35 Sunny 79 26 70 21 74 74 N N/A 29.84 1011 10 16 N/A
6:55 pm 18:55 Sunny with Nearby Thunderstorms 81 27 70 21 70 70 N N/A 29.85 1011 10 16 N/A
7:15 pm 19:15 Sunny 79 26 70 21 74 74 SSW 6 9 29.86 1011 10 16 N/A
7:35 pm 19:35 Partly Cloudy 77 25 72 22 83 83 SSW 5 7 29.87 1012 10 16 N/A
7:55 pm 19:55 Mostly Cloudy 77 25 70 21 79 79 S 3 6 29.88 1012 10 16 N/A
8:15 pm 20:15 Partly Cloudy 77 25 72 22 83 83 N N/A 29.89 1012 10 16 N/A
8:35 pm 20:35 Mostly Cloudy 77 25 72 22 83 83 N N/A 29.90 1013 10 16 N/A
8:55 pm 20:55 Mostly Cloudy 77 25 70 21 79 79 N N/A 29.91 1013 10 16 N/A
9:15 pm 21:15 Partly Cloudy 73 23 70 21 89 89 N N/A 29.93 1013 10 16 N/A
9:35 pm 21:35 Mostly Cloudy 73 23 70 21 89 89 SSW 3 6 29.94 1014 10 16 N/A
9:55 pm 21:55 Partly Cloudy 73 23 70 21 89 89 N N/A 29.94 1014 10 16 N/A
10:15 pm 22:15 Partly Cloudy 73 23 64 18 74 74 N 7 11 29.94 1014 10 16 N/A
10:35 pm 22:35 Partly Cloudy 73 23 68 20 83 83 NE 3 6 29.96 1014 10 16 N/A
10:55 pm 22:55 Mostly Cloudy 73 23 68 20 83 83 NNE 6 9 29.97 1015 10 16 N/A
11:15 pm 23:15 Partly Cloudy 72 22 68 20 88 88 NNE 5 7 29.97 1015 10 16 N/A
11:35 pm 23:35 Clear 73 23 64 18 74 74 N 8 13 29.97 1015 10 16 N/A
11:55 pm 23:55 Partly Cloudy 73 23 63 17 69 69 N 6 9 29.99 1015 10 16 N/A

Powered by AerisWeather